VOLGA DEB, 44621

Orbit data source: Space-Track

VOLGA DEB, 44621 is space debris in SSO originally from a launch on Wed, 10 Jul 2019 UTC launched from the Plesetsk Missile And Space Complex (PKMTR). Debris objects in space refer to the collection of defunct objects orbiting the Earth. Examples of debris include non-operational satellites, rocket bodies, and fragments generated from explosions, collisions, or faulty payload assembly.

Loading next visibility...
Identifier
44621, 2019-039F
Orbit
SSO
Country
Flag of CISCIS
Related business
Manufacturer
TSKHM?
Mission
Spacecraft
Bus & Motor
NAPRAZHENIYE?, Unknown motor
Mass
~47 kg wet, ~47 kg dry
Launch date (UTC)
2019-07-10 (6 years ago)
Launch vehicle
Unknown
Launch site
Plesetsk Missile And Space Complex (PKMTR)
Object type
Payload
Rocket body
Debris
Shape & HBR
Unknown shape, 0.1 m
Radar Cross Section
Small (<0.1 m²)

Expand to show TLE details & history
Last TLE update: 1 day ago

TLE from 1 day ago
0 VOLGA DEB
1 44621U 19039F   25304.82350011  .00004677  00000-0  43156-3 0  9999
2 44621  97.6023 332.9329 0006684 285.6302  74.4182 14.95092590342309
Epoch: 2025-10-31T19:45Z
TLE epoch observation values (Epoch: 2025-10-31T19:45:50.409Z)
Latitude
0.00006°
Longitude
-3.88955°
Altitude
583.889 km
Speed
7.569 km/s
True Right ascension
22h 11m 43s
True Declination
0° 00' 00"
Sunlit
Object was in full shadow at epoch
Visualization orbit readout
Latitude
Unknown
Longitude
Unknown
Altitude
Unknown
Speed
Unknown
Apparent Right ascension
Unknown
Apparent Declination
Unknown
Sunlit
N/A
Visualization observer readout
Local Sidereal Time
00:16:27
Azimuth
Unknown
Elevation
Unknown
Doppler factor
Unknown
Orbital elements
Apogee altitude
583.743 km
Perigee altitude
574.443 km
Semi-major axis
6,957.23 km
Eccentricity
0.00067
Inclination
97.6023°
RAAN
332.9329°
Arg. of periapsis
285.6302°
True anomaly
74.49199°
Mean anomaly
74.4182°
Eccentric anomaly
74.4551°
Mean motion
3.74015 °/min
Orbital period
96.25 mins
BSTAR
0.00043156
Loading maneuver chart data...
Computing Atmospheric mass density...

Documentation

Showing up to 5 results
|